Dewpoint
47 47 47 47 46 47 46 47 48 50 50 50 51 51 52 53 52 50 49 54 50 48 47 41 38 43 43 44 42 41 41 37 39 37 34 34 32 36 34 38 33 33 34 33 34 35 36 44 44 44 46 46 45 45
47 47 46 46 47 47 46 46 48 50 50 51 51 52 52 53 53 52 49 51 53 50 48 45 42 41 43 44 42 41 41 47 46 45 46 43 39 39 40 33 39 35 39 40 40 40 45 42 44 44 43 44 45 45
46 47 48 48 48 47 47 48 50 51 51 51 51 51 52 53 53 51 48 51 50 50 46 43 39 44 39 40 39 44 47 46 50 49 46 41 37 37 34 33 36 40 39 39 38 42 42 43 44 44 44 44 44 44
46 47 48 48 48 48 49 49 49 50 51 51 51 51 52 52 52 51 47 50 51 50 45 42 40 44 44 41 43 43 44 45 43 46 43 41 38 41 37 36 35 36 38 40 39 44 42 45 45 44 43 44 44 45
46 47 48 48 48 49 48 49 49 50 50 50 51 51 51 52 51 50 49 51 54 50 46 45 41 40 39 43 46 46 42 44 46 45 43 40 42 41 41 38 34 37 38 37 40 44 43 44 44 43 44 44 45 45
47 47 47 48 48 48 49 49 49 50 50 50 51 51 51 51 51 49 51 53 51 52 49 44 45 43 44 46 46 48 47 48 47 44 42 42 41 41 37 36 39 38 44 43 43 43 44 44 44 44 43 44 44 45
48 47 47 48 48 49 49 50 50 50 51 51 51 51 51 51 50 47 48 50 50 51 50 44 43 43 44 47 47 46 46 46 46 44 42 41 40 41 39 36 40 41 44 46 46 46 44 44 42 44 45 46 47 47
47 47 48 48 48 49 50 50 50 50 51 51 51 51 51 51 50 50 51 51 50 50 50 44 43 42 44 44 44 46 44 46 47 43 43 40 41 41 37 40 45 47 47 46 46 44 42 43 43 46 46 45 44 44
47 48 48 48 49 49 50 50 50 51 51 51 51 51 50 50 53 53 53 53 54 51 47 46 44 41 42 44 47 46 47 40 46 42 42 42 40 37 42 46 46 47 46 46 45 43 42 42 43 44 44 45 45 46
48 48 48 49 49 50 50 50 51 51 51 51 50 49 50 54 54 53 52 50 50 50 49 44 47 43 41 42 43 44 44 42 38 40 43 40 38 40 41 44 47 46 46 43 41 42 44 45 46 47 47 47 47 47
48 48 48 49 49 50 50 51 51 51 51 51 51 51 53 53 51 51 46 46 44 43 46 44 46 43 45 42 42 45 42 42 36 38 38 36 37 43 43 44 41 41 42 41 42 42 46 47 47 46 46 47 47 48
48 48 49 49 49 50 50 51 51 50 50 49 47 49 50 49 48 44 42 44 42 41 46 44 45 46 48 49 43 46 41 42 36 42 38 35 40 45 43 41 45 45 44 44 43 46 47 48 48 48 49 49 49 50
48 48 49 49 49 50 51 51 51 52 51 50 49 47 47 46 38 36 33 39 43 45 46 46 44 45 49 47 45 45 41 38 42 38 36 41 49 49 49 47 47 47 46 45 45 48 49 49 50 50 50 51 51 52
48 49 49 50 49 50 50 50 52 51 48 47 45 37 40 37 39 37 39 44 46 47 46 48 48 48 48 45 44 40 42 42 38 37 37 46 49 50 50 50 49 48 47 46 48 49 49 50 50 51 51 51 51 52
49 49 49 48 50 50 50 50 51 50 48 44 45 38 38 40 42 42 44 47 50 49 48 48 48 49 47 44 44 42 40 38 39 40 43 47 50 50 51 51 50 49 48 48 49 49 50 51 51 51 51 52 52 53
48 49 48 50 49 50 49 48 51 51 50 47 44 41 41 40 40 42 43 43 48 48 49 50 47 46 43 45 41 39 37 38 43 47 46 49 48 49 51 51 51 50 50 50 50 50 52 51 51 51 52 53 53 53
48 45 48 49 49 49 50 48 52 48 46 42 41 43 42 41 40 44 47 48 50 47 47 48 42 41 45 42 40 44 42 45 46 48 51 49 49 50 51 51 51 51 51 51 51 52 52 52 53 52 50 53 53 52
44 48 49 49 48 48 50 48 46 44 41 41 40 40 40 41 41 43 42 45 47 48 48 45 48 42 41 37 41 48 50 51 51 51 51 51 53 52 51 51 52 52 52 51 51 51 52 50 51 52 52 52 52 52
45 46 48 49 48 45 46 48 47 42 40 42 43 43 42 41 46 48 45 48 52 50 51 49 44 44 44 48 48 49 51 51 49 49 50 51 52 52 51 51 51 51 51 52 51 49 50 49 50 53 53 52 51 52
48 49 49 50 49 46 44 46 53 46 41 44 43 42 43 45 47 48 48 50 53 50 47 46 46 49 49 52 53 52 49 50 48 44 45 49 50 50 51 50 51 51 50 51 48 45 46 48 48 53 53 51 51 52
48 50 50 49 46 45 44 43 44 45 42 42 43 44 45 46 44 51 50 53 52 48 48 51 51 52 54 53 52 52 51 51 50 50 47 46 50 48 49 49 50 48 46 43 43 43 44 47 48 50 52 51 52 53
49 48 49 49 46 46 44 44 43 45 43 42 42 44 44 46 48 50 51 49 50 50 48 49 51 53 52 52 52 52 53 52 53 51 46 48 50 49 48 49 49 46 45 45 46 44 44 45 44 46 51 52 50 52
48 47 46 47 44 42 41 46 43 44 41 45 50 48 50 51 53 51 50 50 52 52 50 49 51 53 51 52 52 53 53 50 49 47 50 50 48 49 50 49 47 46 45 45 47 44 46 42 45 42 43 50 53 51
48 46 43 43 43 40 43 46 45 44 45 44 42 44 47 49 49 47 43 45 47 49 50 53 48 46 49 52 48 50 50 50 48 48 51 49 49 46 46 45 44 44 46 46 45 47 45 44 41 42 42 40 41 47
41 39 41 37 44 43 40 40 43 42 40 44 41 45 49 48 46 45 41 44 45 46 46 48 46 44 42 43 42 46 51 47 46 45 48 49 48 44 44 44 45 46 44 42 44 44 44 45 42 41 42 39 39 40
36 40 39 39 39 41 41 38 41 43 46 43 43 50 49 46 41 40 42 44 45 45 42 42 43 42 44 44 44 44 45 46 46 44 47 44 42 40 42 41 40 42 43 41 40 40 41 41 40 41 38 38 37 37
37 38 41 42 41 41 39 40 40 43 43 43 46 47 46 42 42 45 47 48 44 44 47 45 46 41 41 42 46 45 44 46 46 48 49 47 46 44 42 41 42 42 37 36 38 38 35 35 37 36 36 39 38 37
38 39 37 40 39 39 37 37 37 38 44 48 46 42 39 39 43 48 48 50 45 45 44 43 48 42 41 44 39 41 44 44 45 46 46 45 44 45 41 39 42 36 41 38 38 39 40 38 37 38 39 38 40 40
40 39 38 38 39 38 38 36 35 37 48 50 47 42 48 51 53 51 53 48 41 41 43 39 39 41 43 42 44 39 38 39 42 44 44 43 39 40 41 37 37 40 40 39 35 37 41 39 40 39 41 41 40 43
39 40 37 36 35 35 36 38 38 42 45 48 46 48 50 53 51 48 47 47 42 36 37 36 38 35 34 34 36 39 39 41 40 41 39 39 39 37 39 40 40 40 42 40 39 39 37 38 38 40 40 42 41 41
39 37 37 36 36 38 39 39 40 40 38 38 40 37 39 51 55 54 51 51 50 39 35 34 34 35 36 36 37 39 38 42 44 48 42 40 38 42 42 42 41 42 42 40 39 40 39 39 39 39 39 41 43 38
37 36 35 35 37 39 40 39 36 37 36 37 36 36 35 39 46 49 49 49 49 41 39 36 35 35 36 38 37 39 37 41 46 46 47 43 45 46 42 43 40 40 39 38 38 38 39 41 39 39 39 41 41 41
38 37 37 35 35 36 36 36 37 37 37 36 37 37 38 35 39 47 49 48 46 44 40 37 36 36 44 42 41 40 39 42 42 36 36 37 36 39 41 40 42 41 39 38 36 36 39 41 39 42 41 41 41 41
Lifted_Index
16 16 16 15 16 16 16 16 15 15 15 14 14 13 13 12 11 9 7 7 7 6 6 6 7 6 5 5 5 5 5 5 4 4 4 3 3 3 2 2 2 3 3 2 2 1 1 2 2 1 2 3 3 3
16 16 15 15 15 15 15 15 15 15 15 14 14 13 13 12 11 10 8 7 6 6 5 6 7 7 6 5 5 5 4 4 3 3 3 2 2 2 2 2 2 2 2 2 1 1 2 2 2 2 2 3 3 3
16 15 15 15 15 15 15 15 15 14 14 14 13 13 13 12 11 10 8 6 6 5 5 5 6 6 6 6 5 4 4 3 2 2 2 2 2 2 2 2 2 2 2 2 2 2 2 2 2 3 3 3 3 3
15 15 15 15 15 15 15 15 15 14 14 13 13 13 12 12 11 10 8 6 5 4 4 4 4 5 5 5 5 4 3 3 3 3 3 3 3 2 2 2 3 3 3 3 2 2 2 2 2 2 3 3 3 3
15 15 15 15 15 15 15 15 14 14 13 13 12 12 12 11 10 8 6 5 5 4 3 3 3 3 4 4 4 4 3 3 3 3 3 3 3 3 3 3 3 3 3 3 3 3 2 2 2 2 2 2 3 3
15 15 15 15 15 15 15 14 14 13 13 12 12 11 10 10 9 7 5 4 5 4 3 2 2 3 3 3 3 3 3 3 3 3 3 3 3 3 3 3 3 3 3 2 2 2 2 2 2 2 2 2 2 2
15 15 15 15 15 14 14 13 12 12 12 11 10 9 9 8 7 5 4 4 5 5 3 2 2 2 2 2 2 2 2 2 2 3 3 3 3 3 3 3 2 2 2 1 1 2 2 2 2 2 2 2 2 2
15 15 15 14 14 13 12 11 10 10 10 9 8 8 7 7 5 3 3 5 5 4 3 2 1 2 2 2 2 2 2 2 2 2 2 2 3 3 3 2 1 1 1 1 1 1 2 2 2 1 1 1 1 1
14 14 14 14 13 12 11 9 9 9 8 7 7 6 5 4 3 2 3 4 4 3 2 1 1 1 2 2 1 1 1 2 2 1 2 2 2 2 2 1 1 1 1 1 2 2 2 1 1 0 0 0 1 1
14 14 14 13 13 12 10 9 8 7 6 5 5 4 3 2 2 2 2 2 2 2 2 1 0 0 1 1 1 1 1 1 1 1 1 1 1 1 1 1 1 1 2 2 2 2 1 1 0 0 0 1 1 1
14 14 13 13 12 11 10 8 7 7 5 4 4 3 2 1 1 1 1 1 1 1 1 1 -0 -1 -1 -0 0 0 0 1 1 1 1 1 1 1 1 1 2 2 2 2 2 1 1 1 1 1 2 2 2 3
13 13 13 12 12 10 9 8 7 6 5 4 3 2 1 1 0 0 0 0 0 -0 -0 -0 -1 -1 -1 -1 -0 0 0 0 0 0 0 0 0 0 0 1 1 1 1 1 1 1 1 1 1 2 2 3 3 3
13 13 12 12 11 10 9 8 7 6 5 4 3 1 1 0 0 0 0 -0 -1 -1 -1 -1 -1 -2 -1 -1 -0 -0 -0 -0 -0 -0 0 -0 -1 -1 -1 -0 0 1 1 1 1 1 0 1 1 2 2 3 3 3
12 12 12 11 10 10 9 8 7 6 5 3 2 1 0 0 0 0 -0 -1 -1 -2 -2 -2 -2 -2 -1 -1 -1 -0 -0 -0 -0 0 0 -0 -1 -1 -1 -1 -0 0 1 1 1 0 0 1 2 2 2 2 2 3
11 11 10 10 10 9 8 7 7 6 4 3 1 1 1 0 -0 -0 -1 -1 -1 -1 -2 -2 -1 -1 -1 -1 -1 -1 -0 -0 -0 0 0 0 0 -0 -1 -1 -1 0 1 1 1 1 1 1 2 2 2 2 2 3
11 10 9 9 9 9 8 7 6 5 4 2 2 1 1 0 -0 -1 -1 -1 -1 -1 -1 -1 -1 -1 -1 -1 -1 -1 -0 -0 0 0 1 1 1 0 -0 -1 -1 -0 0 0 1 1 1 2 2 2 2 2 3 3
10 9 9 9 9 9 8 6 5 4 3 2 2 1 1 0 -0 -0 -1 -1 -1 -1 -1 -1 -1 -1 -1 -1 -1 -0 -0 -0 0 0 1 0 0 -0 -1 -1 -1 -1 -0 0 1 1 1 2 2 2 2 2 3 3
10 9 9 9 9 8 7 5 4 3 3 2 2 1 1 0 0 0 -0 -1 -1 -2 -1 -1 -1 -0 -0 -0 -0 -1 -1 -1 -0 0 0 -0 -1 -1 -1 -1 -1 -1 -1 -0 1 1 1 2 2 2 2 3 3 4
10 9 9 9 9 8 6 4 4 3 3 2 1 1 0 0 0 0 -0 -1 -1 -1 -1 -0 -0 -0 -1 -1 -1 -1 -1 -1 -1 -0 -0 -0 -1 -1 -1 -1 -1 -1 -1 -0 1 1 2 2 2 2 2 3 3 4
9 9 8 9 8 7 6 4 3 3 2 2 1 0 0 0 -0 -0 -1 -1 -1 -1 -0 -0 -0 -1 -1 -1 -1 -1 -1 -1 -1 -0 -0 -0 -0 -1 -1 -1 -1 -1 -1 0 1 2 2 2 2 2 2 3 3 3
8 8 8 8 8 7 6 4 4 3 2 2 1 0 0 -0 -1 -1 -1 -1 -1 -1 -1 -1 -1 -1 -1 -1 -1 -1 -1 -1 -1 -0 -0 -0 -0 -1 -1 -1 -0 -0 0 1 2 2 3 3 3 3 3 3 3 3
8 8 8 7 7 6 5 4 4 3 2 1 1 0 -0 -1 -1 -1 -1 -1 -1 -1 -0 -0 -0 -1 -1 -1 -1 -1 -1 -1 -1 -0 -0 -1 -1 -1 -1 -1 -0 0 1 1 2 2 3 3 3 4 3 3 3 3
9 8 7 7 6 5 4 4 3 2 2 1 -0 -1 -1 -1 -1 -1 -1 -1 -1 -1 -0 0 0 -0 -0 -0 -1 -1 -1 -0 -0 -0 -0 -1 -1 -1 -1 -1 -0 0 1 1 2 2 3 3 4 4 4 4 3 3
8 8 7 6 5 4 4 3 2 1 1 0 -0 -1 -1 -2 -2 -1 -1 -1 -1 -0 -0 0 0 0 0 0 -0 -0 -0 -0 0 0 0 -0 -1 -1 -1 -1 0 1 1 1 2 2 3 3 4 4 4 5 4 4
7 7 6 5 4 3 3 2 1 1 0 0 -0 -1 -1 -2 -1 -1 -1 -1 -1 -0 0 1 1 1 1 1 0 0 -0 -0 -0 0 -0 -0 -1 -1 -0 -0 1 1 1 2 2 3 3 3 4 4 4 5 5 5
7 6 5 4 3 3 2 2 1 0 0 0 -0 -1 -1 -1 -1 -1 -0 -0 -0 0 1 1 1 1 1 1 1 0 0 -0 -0 -1 -1 -1 -0 -0 0 1 1 2 2 3 3 3 3 4 4 4 5 5 5 5
6 5 4 4 3 2 2 1 1 0 0 0 -0 -0 -0 -1 -1 -1 -1 -0 0 0 1 1 1 1 1 1 1 1 1 1 0 -0 -1 -1 -0 0 1 1 2 3 4 4 4 4 4 4 4 5 5 5 5 5
6 5 4 3 3 2 2 2 1 1 0 0 0 -0 -0 -1 -1 -1 -1 -0 0 1 2 2 2 1 1 1 1 1 1 1 0 0 -0 -0 0 1 1 2 2 3 4 4 4 4 4 5 5 5 5 5 5 5
5 4 4 3 2 2 2 1 1 1 0 0 -0 -1 -1 -1 -1 -1 -1 -0 1 2 2 2 2 2 2 2 2 1 1 0 0 0 0 0 1 1 1 2 2 3 3 3 3 4 4 4 4 5 5 5 5 5
4 4 3 3 2 2 2 1 1 1 0 0 -0 -0 -0 -1 -1 -0 -1 -1 0 2 2 2 3 2 2 2 2 1 1 0 0 0 1 1 1 2 2 2 2 3 3 3 3 3 3 4 4 4 5 5 4 4
4 3 3 3 2 2 1 1 1 1 1 1 0 0 0 -0 -0 -0 -0 -1 -0 1 2 3 3 3 3 2 2 2 1 1 0 0 1 1 2 2 2 2 3 3 3 3 3 3 3 4 4 4 4 4 4 4
3 3 2 2 2 1 1 1 1 1 1 1 1 1 1 0 -0 -1 -1 -1 -1 0 2 2 3 3 3 2 3 3 2 2 1 1 2 2 2 2 2 3 3 3 3 4 3 3 3 3 3 4 4 3 3 3
2 2 2 2 1 1 1 1 1 1 1 1 1 1 1 0 -0 -1 -1 -1 -1 -0 1 2 3 3 3 2 3 3 3 2 2 2 2 2 3 3 3 3 3 3 3 3 3 3 3 3 3 3 3 3 3 3